Location: Les Chemineaux
(47.3024°N, 1.5104°E)
Time: 20:37:51
(UTC+00:00)

Cosmos 1408 Rocket - Pass Details

Date: 19 May 2025
Orbit: 594 x 625 km, 82.6° (Epoch: 21 June)

Event Time Altitude Azimuth Distance (km) Brightness Sun altitude
Rises 22:55:22 0° 353° (N) 2,883 8.5 -21.6°
Reaches altitude 10° 22:57:37 10° 356° (N) 1,969 7.3 -21.7°
Maximum altitude 23:01:58 67° 79° (E) 657 3.6 -21.8°
Enters shadow 23:02:27 61° 121° (ESE) 690 3.5 -21.9°
